FREGAT DEB, 46002

Orbit data source: Space-Track

FREGAT DEB, 46002 is space debris in LEO originally from a launch on Mon, 18 Jul 2011 UTC launched from the Tyuratam Missile And Space Complex (TTMTR). Debris objects in space refer to the collection of defunct objects orbiting the Earth. Examples of debris include non-operational satellites, rocket bodies, and fragments generated from explosions, collisions, or faulty payload assembly.

Loading next visibility...
Identifier
46002, 2011-037HD
Orbit
LEO
Country
Flag of CISCIS
Related business
Manufacturer
Lavochkin
Mission
Spacecraft
Bus & Motor
Unknown
Mass
Unknown
Launch date (UTC)
2011-07-18 (15 years ago)
Launch vehicle
Unknown
Launch site
Tyuratam Missile And Space Complex (TTMTR)
Object type
Payload
Rocket body
Debris
Shape & HBR
Unknown shape, 0.1 m
Radar Cross Section
Medium (>0.1 m² and <1 m²)

Expand to show TLE details & history
Last TLE update: 18 hours ago

TLE from 18 hours ago
0 FREGAT DEB
1 46002U 11037HD  26256.19293062  .00022821  00000-0  49045-1 0  9995
2 46002  51.1320 330.2934 1317028 341.4977  14.1946 11.58971787238470
Epoch: 2026-09-13T04:37Z
TLE epoch observation values (Epoch: 2026-09-13T04:37:49.205Z)
Latitude
-0°
Longitude
-91.35272°
Altitude
828.041 km
Speed
7.895 km/s
True Right ascension
22h 01m 10s
True Declination
0° 00' 00"
Sunlit
Object was in full shadow at epoch
Visualization orbit readout
Latitude
Unknown
Longitude
Unknown
Altitude
Unknown
Speed
Unknown
Apparent Right ascension
Unknown
Apparent Declination
Unknown
Sunlit
N/A
Visualization observer readout
Local Sidereal Time
14:39:53
Azimuth
Unknown
Elevation
Unknown
Doppler factor
Unknown
Orbital elements
Apogee altitude
2,956.815 km
Perigee altitude
784.09 km
Semi-major axis
8,248.59 km
Eccentricity
0.1317
Inclination
51.132°
RAAN
330.2934°
Arg. of periapsis
341.4977°
True anomaly
18.58733°
Mean anomaly
14.1946°
Eccentric anomaly
16.31433°
Mean motion
2.89717 °/min
Orbital period
124.26 mins
BSTAR
0.049045
Loading maneuver chart data...
Computing Atmospheric mass density...
Loading historical data...
Loading historical data...
Loading historical data...
Loading historical data...
Loading historical data...
Loading historical data...
Loading historical data...

Documentation

Showing up to 5 results
|